Regional Weather Roundup
Issued by NWS

Home | Current Version | Previous Version | Graphics & Text | Print | Product List | Glossary On
Versions: 1 2 3 4 5 6 7 8 9 10 11 12 13 14 15 16 17 18 19 20 21 22 23 24 25 26 27
000
ASUS45 KBOU 270707
RWRCO

WEATHER ROUNDUP FOR COLORADO
NATIONAL WEATHER SERVICE DENVER/BOULDER CO
100 AM MDT SAT MAY 27 2017

NOTE: "FAIR" INDICATES FEW OR NO CLOUDS BELOW 12000 FEET WITH NO
SIGNIFICANT WEATHER AND/OR OBSTRUCTIONS TO VISIBILITY.

COZ001>005-013-030-031-270800-
...NORTHWEST COLORADO...

CITY           SKY/WX    TMP DP  RH WIND       PRES   REMARKS
CRAIG          LGT RAIN  44  40  85 SE7       30.09F
HAYDEN         CLOUDY    41  36  81 NW3       30.12S
MEEKER         CLOUDY    47  38  71 NE9       30.08R
RABBIT EARS PA NOT AVBL
STEAMBOAT SPGS NOT AVBL
WALDEN         NOT AVBL
$$

COZ006>008-011-270800-
...WEST CENTRAL VALLEYS...

CITY           SKY/WX    TMP DP  RH WIND       PRES   REMARKS
GRAND JUNCTION MOCLDY    64  36  35 SW6       29.92R
MONTROSE       FAIR      57  19  22 S14       29.95R
EAGLE          FAIR      56  32  40 VRB3      30.04R
RIFLE          CLOUDY    58  39  49 NW13G22   29.97F
DELTA          FAIR      62  20  20 NE5       29.90R
NUCLA          FAIR      57  14  18 S5        29.99R
$$

COZ017>023-064>068-270800-
...SOUTHWEST COLORADO...

CITY           SKY/WX    TMP DP  RH WIND       PRES   REMARKS
DURANGO        FAIR      43  18  36 N3        30.05R
CORTEZ         FAIR      61  21  21 SW12      30.00R
PAGOSA SPRINGS FAIR      43  12  28 CALM      30.11R
TELLURIDE      FAIR      51  16  24 SE3       30.17R
WOLF CREEK PAS NOT AVBL
$$

COZ009-010-012-014-032>034-037-058>063-270800-
...CENTRAL COLORADO...

CITY           SKY/WX    TMP DP  RH WIND       PRES   REMARKS
ASPEN          MOCLDY    51  26  37 N8        30.05R
BUENA VISTA    FAIR      41  20  42 CALM      30.04S
COPPER MTN     NOT AVBL
BERTHOUD PASS  NOT AVBL
COTTONWOOD PAS NOT AVBL
GUNNISON       FAIR      41  22  46 VRB3      30.06S
KREMMLING      NOT AVBL
LEADVILLE      FAIR      42  11  28 VRB6      30.12S
SALIDA         FAIR      48  17  29 W7        30.10S
SUNLIGHT       NOT AVBL
WILKERSON PASS NOT AVBL
$$

COZ069>075-270800-
...SAN LUIS VALLEY/SANGRE DE CRISTO MOUNTAINS...

CITY           SKY/WX    TMP DP  RH WIND       PRES   REMARKS
ALAMOSA        FAIR      42  22  44 SW7       30.07R
DEL NORTE      NOT AVBL
LA VETA PASS   NOT AVBL
SAGUACHE       NOT AVBL
$$

COZ035-036-038>040-270800-
...NORTHERN COLORADO FRONT RANGE...

CITY           SKY/WX    TMP DP  RH WIND       PRES   REMARKS
DENVER INTL AP CLOUDY    50  45  83 N8        30.06R
DMNS CITY PARK   N/A     51  43  74 N7G17     30.07S
AURORA         CLOUDY    49  46  87 N9        30.07R
FRONT RANGE AP NOT AVBL
ERIE MUNI ARPT NOT AVBL
BOULDER MUN AP NOT AVBL
CENTENNIAL     CLOUDY    50  45  83 N9        30.07S
BROOMFIELD     NOT AVBL
FORT COLLINS   CLOUDY    50  44  80 NE8       30.05R
LONGMONT       NOT AVBL
$$

COZ041-046-047-076>085-087-088-270800-
...PIKES PEAK/PALMER DIVIDE AND SOUTHERN FOOTHILLS...

CITY           SKY/WX    TMP DP  RH WIND       PRES   REMARKS
COLO. SPRINGS  FAIR      51  41  68 N23G33    30.03R
A. F. ACADEMY  CLOUDY    48  41  74 N25G32    30.05S
SCHRIEVER AFB  FAIR      48  41  76 N23G32    30.02R
CHEYENNE MTN   FAIR      48  39  71 NW24G33   29.97R
ELLICOTT       FAIR     N/A N/A N/A N22G33    30.00R
FALCON         FAIR      46  40  82 N20G33    30.05S
FORT CARSON    FAIR      52  41  65 N31G40    29.98R
LIMON          CLOUDY    49  48  97 N16G22    29.99R
MONUMENT HILL  NOT AVBL
CANON CITY     NOT AVBL
WALSENBURG     NOT AVBL
TRINIDAD       FAIR      50  26  39 NW9       29.92S
$$

COZ042>045-048>051-090-091-270800-
...NORTHEAST COLORADO...

CITY           SKY/WX    TMP DP  RH WIND       PRES   REMARKS
GREELEY ARPT   CLOUDY    50  46  86 N12       30.04R
AKRON          CLOUDY    51  48  89 NE12      29.95S
BURLINGTON     FAIR      52  49  89 E7        29.87F
WRAY           MOCLDY    55  50  82 N15G22    29.90S
YUMA           NOT AVBL
STERLING       NOT AVBL
HOLYOKE        NOT AVBL
FORT MORGAN    FAIR      50  47  92 N10       29.99R
$$

COZ086-089-092>099-270800-
...SOUTHEAST COLORADO...

CITY           SKY/WX    TMP DP  RH WIND       PRES   REMARKS
PUEBLO         FAIR      58  45  62 N35G44    29.90R
LA JUNTA       FAIR      53  33  46 NW8       29.81R
LAMAR          FAIR      63  52  67 E12G22    29.80R
SPRINGFIELD      N/A     52  47  83 SW8       29.84F
$$




USA.gov is the U.S. government's official web portal to all federal, state and local government web resources and services.